Retour au catalogue

FENGYUN 1C DEB

ActifSSO
NORAD 31228·DEBRIS·🇨🇳 China

Lancé May 10, 1999 depuis Taiyuan Satellite Launch Center

Loading…

Prochains Passages (prochaines 24 heures)

TLE

FraisSource: Space-Track

Époque: Sep 14, 2026, 12:27 UTC

1 31228U 99025BLJ 26257.51927226  .00001003  00000-0  33783-3 0  9998
2 31228  98.8666 182.8952 0077879 353.6750  60.6493 14.37692357 15284

Suivez FENGYUN 1C DEB en temps réel avec AllMySat

Download on the App Store